STARLINK-1798 (46779 NORAD) Tracking and Keplerian Element Data

This shows tracking and keplerian element data for the satellite.

Feedback or suggestion? Click here.




ElementValue
Catalog46779
NameSTARLINK-1798
Epoch Orbit533
Epoch Day331.16668981
Epoch Year2020
RAAN0.7949
Inclination53.0551
Eccentricity8.57E-05
Argument of Perigee81.6843
Mean Anonmoly120.0117
Mean Motion15.62808588
Decay Rate-0.00049218
L11 46779U 20074AS 20331.16668981 -.00049218 00000-0 -53381-3 0 9999
L22 46779 53.0551 0.7949 0000857 81.6843 120.0117 15.62808588 5337

Live tracking and technical data element details for STARLINK-1798 (NORAD 46779). STARLINK-1798 can be tracked NOW for your location showing map with azimuth and elevation plus other details from your city location.

Track the satellite on the map from your city or location and see movement details for azimuth, elevation, latitude, longitude, range, height, and movement on the map or in text.







IsCatalogInMostPopularTable: catalog: 46779, numindb: 8
Update: records affected: 1



GetName: 46779 STARLINK-1798

Hit Count: updated at: Thu, 26 Nov 2020 18:36:12 GMT